User: anonymous   Login
Location: Delta State University
(33.7460°N, 90.7320°W)
Time: 05:19:09
(UTC-05:00)
Language:

Iridium 13 - Orbit

View from above orbital plane
View from above orbital plane
View from above satellite
View from above satellite

Ground track
Ground track

The orbit data is extracted from the following two-line orbital elements,

1 24840U 97030E   15142.47107205  .00000160  00000-0  49905-4 0  9994
2 24840 086.3935 306.5061 0002301 096.1830 316.0849 14.34216751938485
Epoch (UTC): 22 May 2015 11:18:20
Eccentricity: 0.0002301
inclination: 86.3935°
perigee height: 776 km
apogee height: 779 km
right ascension of ascending node: 306.5061°
argument of perigee: 96.1830°
revolutions per day: 14.34216751
mean anomaly at epoch: 316.0849°
orbit number at epoch: 93848

The dashed part of the orbit path shows where the satellite is in the earth's shadow,  

DLR